Flag for Canada Weather past 2 weeks in Prince George, British Columbia, Canada

Now
41 °F

Partly sunny.


Feels Like: 34 °F
Forecast: 35 / 47 °F
Wind: 12 mph from Southwest

Location: Prince George

Current Time: Mar 31, 2015 at 2:41:43 PM

Latest Report: Mar 31, 2015 at 1:00 PM


Visibility: 9 mi

Pressure: 29.81 "Hg

Humidity: 76%

Dew point: 34 °F

Location of Prince GeorgeLocation

Historic Weather in Prince George — Graph

°F

Prince George temperature yesterday

Maximum temperature yesterday: 45 °F (at 3:00 PM)
Minimum temperature yesterday: 32 °F (at 4:00 AM)
Average temperature yesterday: 39 °F

Past Weeks' High & Low Weather Summary

 TemperatureHumidityPressure
High55 °F (Mar 29, 3:00 PM)100% (Mar 19, 2:00 AM)30.44 "Hg (Mar 19, 2:00 AM)
Low21 °F (Mar 17, 6:00 AM)27% (Mar 16, 5:00 PM)29.70 "Hg (Mar 31, 1:46 AM)
Average38 °F85%29.98 "Hg
* Reported Mar 16 1:00 PM — Mar 31 1:00 PM, Prince George, Weather by CustomWeather, © 2015

Note: Actual official high and low records may vary slightly from our data, if they occured in-between our weather recording intervals... More about our weather records

Advertising

Prince George weather history for previous 24 hours

 ConditionsComfort  
Time TempWeatherWind HumidityBarometerVisibility
1:00 PM
Tue, Mar 31
41 °FPartly sunny.12 mph76%29.81 "Hg9 mi
12:00 PM39 °FBroken clouds.10 mph81%29.80 "Hg9 mi
11:00 AM36 °FPassing clouds.9 mph100%29.78 "Hg9 mi
10:00 AM34 °FMostly cloudy.7 mph100%29.75 "Hg9 mi
9:46 AM34 °FMostly cloudy.6 mph100%29.75 "Hg9 mi
9:00 AM32 °FMore clouds than sun.6 mph100%29.74 "Hg9 mi
8:50 AM32 °FLight snow. More clouds than sun.6 mph100%29.74 "Hg9 mi
8:02 AM32 °FLight snow. More clouds than sun.9 mph100%29.73 "Hg6 mi
7:04 AM32 °FLight snow. Mostly cloudy.3 mph100%29.73 "Hg5 mi
6:59 AM32 °FLight snow. Mostly cloudy.6 mph100%29.73 "Hg3 mi
6:00 AM32 °FLight snow. Mostly cloudy.5 mph100%29.73 "Hg1 mi
5:55 AM32 °FLight snow. Low clouds.3 mph100%29.73 "Hg1 mi
5:03 AM32 °FLight snow. Low clouds.3 mph100%29.73 "Hg2 mi
4:04 AM34 °FLight mixture of precip. Mostly cloudy.3 mph100%29.72 "Hg4 mi
4:00 AM34 °FLight rain. Fog.6 mph100%29.72 "Hg4 mi
3:03 AM37 °FLight rain. Fog.12 mph93%29.71 "Hg4 mi
2:00 AM39 °FLight rain. Mostly cloudy.6 mph93%29.71 "Hg9 mi
1:46 AM39 °FLight rain. Fog.7 mph93%29.70 "Hg6 mi
1:00 AM41 °FLight rain. Fog.2 mph93%29.71 "Hg5 mi
12:59 AM41 °FLight rain. Fog.3 mph93%29.71 "Hg5 mi
12:00 AM41 °FLight rain. Mostly cloudy.3 mph93%29.72 "Hg9 mi
11:49 PM
Mon, Mar 30
41 °FLight rain. Mostly cloudy.5 mph93%29.72 "Hg9 mi
11:00 PM41 °FLight rain. Overcast.5 mph100%29.72 "Hg7 mi
10:57 PM41 °FLight rain. Fog.3 mph100%29.73 "Hg6 mi
10:01 PM41 °FLight rain. Overcast.3 mph93%29.73 "Hg9 mi
9:00 PM41 °FLight rain. Fog.8 mph100%29.74 "Hg3 mi
8:55 PM41 °FLight rain. Fog.3 mph100%29.75 "Hg5 mi
8:00 PM41 °FMostly cloudy.8 mph100%29.73 "Hg7 mi
7:57 PM41 °FFog.5 mph100%29.74 "Hg6 mi
7:00 PM41 °FLight rain. Mostly cloudy.9 mph100%29.74 "Hg9 mi
6:54 PM41 °FLight rain. Fog.8 mph100%29.74 "Hg6 mi
6:00 PM41 °FLight rain. Mostly cloudy.7 mph100%29.75 "Hg9 mi
5:59 PM41 °FLight rain. Mostly cloudy.8 mph100%29.75 "Hg9 mi
5:00 PM43 °FLight rain. Partly sunny.8 mph93%29.75 "Hg9 mi
4:00 PM45 °FOvercast.8 mph81%29.77 "Hg9 mi
3:00 PM45 °FPartly sunny.8 mph81%29.79 "Hg9 mi
2:04 PM43 °FOvercast.7 mph81%29.82 "Hg9 mi
Weather by CustomWeather, © 2015

See weather overviewHow to use our weather pages